GW5134 Weather Reports


time (UTC)temp
C
wind
direction
speed
KPH
gust
KPH
rain 1hr
cm
rain 24hr
cm
rain mn
cm
humidity
%
barometer
mb
20260508033844 3 324 0.0 0.0 0.00 0.08 0.08 87 1017.4
20260508033342 3 324 0.0 0.0 0.00 0.08 0.08 87 1017.7
20260508032839 3 324 0.0 0.0 0.00 0.08 0.08 86 1017.4
20260508032337 3 324 0.0 0.0 0.00 0.08 0.08 86 1017.3
20260508031833 3 324 0.0 0.0 0.00 0.08 0.08 85 1017.4
20260508031330 3 324 0.0 0.0 0.00 0.08 0.08 85 1017.3
20260508030826 3 324 0.0 0.0 0.00 0.08 0.08 85 1017.3
20260508030324 4 323 0.0 0.0 0.00 0.08 0.08 84 1017.3
20260508025820 4 323 0.0 0.0 0.00 0.08 0.08 83 1017.0
20260508025318 4 323 0.0 0.0 0.00 0.08 0.08 83 1017.0
20260508024814 4 323 0.0 0.0 0.00 0.08 0.08 82 1017.2
20260508024310 5 323 0.0 0.0 0.00 0.08 0.08 81 1016.9
20260508023808 5 327 0.0 0.0 0.00 0.08 0.08 80 1017.0
20260508023304 5 327 0.0 0.0 0.00 0.08 0.08 79 1016.9
20260508022800 5 352 0.0 0.0 0.00 0.08 0.08 79 1016.9
20260508022257 5 345 0.0 0.0 0.00 0.08 0.08 79 1016.6
20260508021754 5 335 0.0 0.0 0.00 0.08 0.08 79 1016.8
20260508021249 6 338 0.0 0.0 0.00 0.08 0.08 79 1016.7
20260508020746 6 335 0.0 0.0 0.00 0.08 0.08 78 1016.6
20260508020244 6 339 0.0 0.0 0.00 0.08 0.08 77 1016.7
20260508015741 6 336 0.0 0.0 0.00 0.08 0.08 77 1016.6
20260508015238 6 336 0.0 0.0 0.00 0.08 0.08 76 1016.3
20260508014735 6 333 0.0 0.0 0.00 0.08 0.08 76 1016.4
20260508014232 6 329 0.0 0.0 0.00 0.08 0.08 77 1016.5
20260508013727 6 349 0.0 0.0 0.00 0.08 0.08 75 1016.3
20260508013224 7 342 0.0 0.0 0.00 0.08 0.08 74 1016.1
20260508012722 7 355 0.0 3.2 0.00 0.08 0.08 69 1016.0
20260508012218 7 333 1.6 1.6 0.00 0.08 0.08 68 1015.9
20260508011717 7 342 0.0 0.0 0.00 0.08 0.08 69 1015.7
20260508011214 8 307 0.0 0.0 0.00 0.08 0.08 68 1015.8
20260508010710 8 324 0.0 0.0 0.00 0.08 0.08 64 1015.8
20260508010208 8 337 0.0 3.2 0.00 0.08 0.08 61 1015.9
20260508005706 8 319 1.6 4.8 0.00 0.08 0.08 67 1015.7
20260508005202 8 326 3.2 3.2 0.00 0.08 0.08 68 1015.5
20260508004657 8 305 0.0 3.2 0.00 0.08 0.08 65 1015.7
20260508004154 8 326 1.6 4.8 0.00 0.08 0.08 68 1015.7
20260508003651 9 287 3.2 3.2 0.00 0.08 0.08 68 1015.3
20260508003148 10 329 0.0 4.8 0.00 0.08 0.08 63 1015.3
20260508002644 11 326 3.2 4.8 0.00 0.08 0.08 57 1015.2
20260508002143 11 313 3.2 4.8 0.00 0.08 0.08 52 1015.3
20260508001637 12 272 1.6 1.6 0.00 0.08 0.08 51 1014.9
20260508001133 12 315 0.0 4.8 0.00 0.08 0.08 46 1015.0
20260508000629 12 323 0.0 1.6 0.00 0.08 0.08 49 1014.9
20260508000127 12 297 1.6 1.6 0.00 0.08 0.08 48 1014.7
20260507235624 12 323 1.6 6.4 0.00 0.08 0.08 47 1014.7
20260507235122 13 279 4.8 6.4 0.00 0.08 0.08 46 1014.7
20260507234618 12 298 4.8 11.3 0.00 0.08 0.08 47 1014.6
20260507234114 12 302 1.6 4.8 0.00 0.08 0.08 49 1014.6
20260507233611 13 306 0.0 1.6 0.00 0.08 0.08 47 1014.5
20260507233110 13 263 1.6 4.8 0.00 0.08 0.08 46 1014.5
20260507232605 13 283 0.0 3.2 0.00 0.08 0.08 46 1014.6
20260507232103 13 319 1.6 4.8 0.00 0.08 0.08 47 1014.3
20260507231559 13 274 3.2 4.8 0.00 0.08 0.08 47 1014.5
20260507231057 13 293 3.2 6.4 0.00 0.08 0.08 45 1014.3
20260507230553 14 328 4.8 6.4 0.00 0.08 0.08 43 1014.4
20260507230050 14 267 3.2 6.4 0.00 0.08 0.08 47 1014.5
20260507225544 15 259 4.8 6.4 0.00 0.08 0.08 41 1014.1
20260507225041 15 318 14.5 20.9 0.00 0.08 0.08 44 1014.3
20260507224537 15 310 1.6 6.4 0.00 0.08 0.08 43 1014.3
20260507224034 14 338 4.8 6.4 0.00 0.08 0.08 49 1014.3
20260507223530 14 292 1.6 3.2 0.00 0.08 0.08 47 1014.2
20260507223027 13 273 1.6 4.8 0.00 0.08 0.08 46 1014.5
20260507222524 13 330 9.7 17.7 0.00 0.08 0.08 45 1014.2
20260507222020 14 334 11.3 14.5 0.00 0.08 0.08 44 1014.2
20260507221517 15 236 8.0 12.9 0.00 0.08 0.08 44 1014.2
20260507221014 15 23 0.0 12.9 0.00 0.08 0.08 44 1014.1
20260507220511 15 276 1.6 11.3 0.00 0.08 0.08 46 1014.1
20260507220008 15 7 9.7 22.5 0.00 0.08 0.08 43 1013.7
20260507215504 15 118 3.2 12.9 0.00 0.08 0.08 44 1013.7
20260507215003 15 314 6.4 14.5 0.00 0.08 0.08 46 1013.7
20260507214459 14 243 6.4 14.5 0.00 0.08 0.08 45 1013.8
20260507213955 15 332 8.0 16.1 0.00 0.08 0.08 44 1013.7
20260507213452 15 341 3.2 6.4 0.00 0.08 0.08 43 1013.8
20260507212948 15 218 11.3 12.9 0.00 0.08 0.08 47 1013.6
20260507212444 15 250 4.8 16.1 0.00 0.08 0.08 47 1013.8
20260507211942 16 218 12.9 16.1 0.00 0.08 0.08 45 1013.7
20260507211438 15 12 8.0 12.9 0.00 0.08 0.08 46 1013.4
20260507210935 16 322 14.5 20.9 0.00 0.08 0.08 47 1013.4
20260507210432 16 328 8.0 16.1 0.00 0.08 0.08 49 1013.6
20260507205928 15 286 9.7 11.3 0.00 0.08 0.08 50 1013.3
20260507205426 15 303 6.4 20.9 0.00 0.08 0.08 50 1013.5
20260507204922 15 305 9.7 14.5 0.00 0.08 0.08 46 1013.4
20260507204418 15 306 9.7 14.5 0.00 0.08 0.08 50 1013.3
20260507203916 16 247 4.8 12.9 0.00 0.08 0.08 49 1013.4
20260507203414 14 322 4.8 11.3 0.00 0.08 0.08 53 1013.4
20260507202910 15 283 4.8 9.7 0.00 0.08 0.08 47 1013.3
20260507202406 16 54 6.4 12.9 0.00 0.08 0.08 44 1013.2
20260507201902 16 249 4.8 14.5 0.00 0.08 0.08 46 1013.5
20260507201357 15 197 3.2 14.5 0.00 0.08 0.08 49 1013.4
20260507200854 16 255 11.3 16.1 0.00 0.08 0.08 50 1013.4
20260507200350 16 347 16.1 20.9 0.00 0.08 0.08 47 1013.6
20260507195846 15 225 3.2 6.4 0.00 0.08 0.08 48 1013.7
20260507195344 14 347 12.9 17.7 0.00 0.08 0.08 49 1013.9
20260507194841 15 334 6.4 6.4 0.00 0.08 0.08 49 1013.9
20260507194337 16 297 11.3 14.5 0.00 0.08 0.08 51 1013.9
20260507193834 16 308 1.6 9.7 0.00 0.08 0.08 52 1013.9
20260507193331 15 345 8.0 9.7 0.00 0.08 0.08 49 1014.0
20260507192827 14 335 8.0 16.1 0.00 0.08 0.08 51 1013.9
20260507192324 15 322 6.4 14.5 0.00 0.08 0.08 49 1013.9
20260507191820 15 40 4.8 17.7 0.00 0.08 0.08 48 1014.1
20260507191316 16 220 14.5 24.1 0.00 0.08 0.08 52 1014.0
20260507190813 15 297 4.8 9.7 0.00 0.08 0.08 49 1013.9
20260507190312 16 232 11.3 14.5 0.00 0.08 0.08 52 1014.0
20260507185810 15 349 11.3 20.9 0.00 0.08 0.08 58 1013.9
20260507185306 15 322 6.4 11.3 0.00 0.08 0.08 52 1013.9
20260507184805 15 299 3.2 14.5 0.00 0.08 0.08 48 1014.0
20260507184303 14 283 6.4 12.9 0.00 0.08 0.08 48 1014.0
20260507183759 15 307 9.7 17.7 0.00 0.08 0.08 48 1013.9
20260507183256 13 320 8.0 12.9 0.00 0.08 0.08 55 1014.2
20260507182754 13 313 9.7 12.9 0.00 0.08 0.08 54 1014.3
20260507182253 13 251 6.4 11.3 0.00 0.08 0.08 51 1014.3
20260507181751 13 297 1.6 6.4 0.00 0.08 0.08 52 1014.3
20260507181247 14 261 11.3 20.9 0.00 0.08 0.08 53 1014.4
20260507180744 14 235 14.5 24.1 0.00 0.08 0.08 58 1014.4
20260507180241 14 240 8.0 9.7 0.00 0.08 0.08 51 1014.5
20260507175736 15 333 0.0 11.3 0.00 0.08 0.08 59 1014.3
20260507175233 15 247 11.3 17.7 0.00 0.08 0.08 51 1014.4
20260507174731 13 257 3.2 6.4 0.00 0.08 0.08 55 1014.3
20260507174228 14 320 8.0 11.3 0.00 0.08 0.08 62 1014.6
20260507173726 14 214 8.0 17.7 0.00 0.08 0.08 55 1014.6
20260507173222 13 249 3.2 6.4 0.00 0.08 0.08 52 1014.7
20260507172719 13 319 3.2 6.4 0.00 0.08 0.08 56 1014.8
20260507172216 14 325 6.4 14.5 0.00 0.08 0.08 60 1014.6
20260507171716 14 235 1.6 14.5 0.00 0.08 0.08 56 1015.0
20260507171214 14 222 4.8 11.3 0.00 0.08 0.08 59 1014.7
20260507170710 15 242 3.2 16.1 0.00 0.08 0.08 55 1014.8
20260507170208 13 215 3.2 11.3 0.00 0.08 0.08 55 1015.0
20260507165703 13 204 9.7 16.1 0.00 0.08 0.08 56 1015.2
20260507165159 13 239 12.9 17.7 0.00 0.08 0.08 59 1015.0
20260507164655 14 226 9.7 12.9 0.00 0.08 0.08 58 1015.0
20260507164153 15 241 4.8 12.9 0.00 0.08 0.08 56 1014.9
20260507163650 14 315 8.0 24.1 0.00 0.08 0.08 60 1015.3
20260507163148 14 225 14.5 16.1 0.00 0.08 0.08 57 1015.3
20260507162643 14 262 3.2 14.5 0.00 0.08 0.08 55 1015.4
20260507162140 13 306 0.0 11.3 0.00 0.08 0.08 59 1015.5
20260507161636 13 21 4.8 16.1 0.00 0.08 0.08 64 1015.7
20260507161133 13 271 8.0 14.5 0.00 0.08 0.08 64 1015.5
20260507160629 12 323 4.8 9.7 0.00 0.08 0.08 64 1015.5
20260507160126 12 215 0.0 4.8 0.00 0.08 0.08 61 1015.8
20260507155621 13 336 6.4 11.3 0.00 0.08 0.08 63 1015.7
20260507155118 12 242 3.2 6.4 0.00 0.08 0.08 64 1016.0
20260507154615 11 341 8.0 11.3 0.00 0.08 0.08 66 1015.8
20260507154112 12 272 11.3 16.1 0.00 0.08 0.08 66 1015.8
20260507153609 12 341 1.6 4.8 0.00 0.08 0.08 66 1015.7
20260507153106 12 346 6.4 11.3 0.00 0.08 0.08 66 1015.7
20260507152602 12 314 3.2 6.4 0.00 0.08 0.08 62 1015.8
20260507152058 13 306 3.2 4.8 0.00 0.08 0.08 67 1015.6
20260507151554 12 259 0.0 4.8 0.00 0.08 0.08 67 1015.9
20260507151051 11 244 8.0 9.7 0.00 0.08 0.08 72 1015.9
20260507150548 12 136 3.2 4.8 0.00 0.08 0.08 67 1015.9
20260507150039 12 11 0.0 6.4 0.00 0.08 0.08 67 1016.0
20260507145533 12 312 0.0 4.8 0.00 0.08 0.08 66 1016.1
20260507145032 11 211 4.8 11.3 0.00 0.08 0.08 72 1016.1
20260507144528 12 223 6.4 6.4 0.00 0.08 0.08 67 1016.2
20260507144026 11 207 1.6 4.8 0.00 0.08 0.08 67 1016.1
20260507143523 11 216 1.6 4.8 0.00 0.08 0.08 65 1016.2
20260507143020 11 336 0.0 4.8 0.00 0.08 0.08 68 1016.3
20260507142515 11 214 3.2 6.4 0.00 0.08 0.08 67 1016.5
20260507142012 11 7 0.0 4.8 0.00 0.08 0.08 70 1016.5
20260507141508 11 218 1.6 3.2 0.00 0.08 0.08 77 1016.5
20260507141007 10 229 6.4 6.4 0.00 0.08 0.08 80 1016.7
20260507140502 10 226 3.2 4.8 0.00 0.08 0.08 78 1016.9
20260507135959 10 213 6.4 6.4 0.00 0.08 0.08 81 1016.8
20260507135456 10 334 1.6 4.8 0.00 0.08 0.08 80 1016.6
20260507134953 10 231 0.0 1.6 0.00 0.08 0.08 82 1016.8
20260507134449 10 233 3.2 3.2 0.00 0.08 0.08 80 1016.8
20260507133946 10 271 0.0 4.8 0.00 0.08 0.08 81 1016.8
20260507133442 10 242 3.2 4.8 0.00 0.08 0.08 83 1016.8
20260507132941 10 248 0.0 3.2 0.00 0.08 0.08 83 1017.0
20260507132436 10 166 0.0 0.0 0.00 0.08 0.08 84 1016.9
20260507131933 10 215 1.6 3.2 0.00 0.08 0.08 85 1016.8
20260507131430 9 234 0.0 4.8 0.00 0.08 0.08 84 1017.0
20260507130927 10 245 0.0 0.0 0.00 0.08 0.08 85 1017.1
20260507130424 10 273 0.0 0.0 0.00 0.08 0.08 86 1017.0
20260507125923 9 274 0.0 0.0 0.00 0.08 0.08 87 1017.0
20260507125420 9 296 0.0 0.0 0.00 0.08 0.08 87 1017.1
20260507124918 9 241 0.0 0.0 0.00 0.08 0.08 88 1017.1
20260507124413 8 265 0.0 0.0 0.00 0.08 0.08 89 1017.0
20260507123912 8 216 0.0 0.0 0.00 0.08 0.08 90 1017.1
20260507123409 8 238 1.6 4.8 0.00 0.08 0.08 91 1017.1
20260507122905 8 226 0.0 0.0 0.00 0.08 0.08 91 1017.1
20260507122400 8 250 3.2 3.2 0.00 0.08 0.08 92 1017.3
20260507121857 8 247 3.2 4.8 0.00 0.08 0.08 92 1017.3
20260507121352 8 219 1.6 3.2 0.00 0.08 0.08 92 1017.0
20260507120849 8 231 0.0 3.2 0.00 0.08 0.08 92 1017.0
20260507120346 8 230 0.0 0.0 0.00 0.08 0.08 93 1016.8
20260507115842 8 219 0.0 1.6 0.00 0.08 0.08 93 1017.0
20260507115338 8 216 1.6 3.2 0.00 0.08 0.08 93 1016.8
20260507114833 8 232 0.0 1.6 0.00 0.08 0.08 93 1016.8
20260507114331 8 240 3.2 3.2 0.00 0.08 0.08 93 1016.9
20260507113828 8 229 0.0 0.0 0.00 0.08 0.08 94 1016.8
20260507113325 8 242 0.0 0.0 0.00 0.08 0.08 94 1016.6
20260507112823 8 268 0.0 1.6 0.00 0.08 0.08 94 1016.6
20260507112319 8 269 0.0 0.0 0.00 0.08 0.08 94 1016.4
20260507111818 8 288 0.0 0.0 0.00 0.08 0.08 94 1016.3
20260507111314 8 305 0.0 0.0 0.00 0.08 0.08 94 1016.4
20260507110810 8 308 0.0 0.0 0.00 0.08 0.08 94 1016.4
20260507110306 8 307 0.0 0.0 0.00 0.08 0.08 94 1016.3
20260507105803 8 307 0.0 0.0 0.00 0.08 0.08 94 1016.3
20260507105259 8 306 0.0 0.0 0.00 0.08 0.08 94 1016.4
20260507104757 8 305 0.0 0.0 0.00 0.08 0.08 94 1016.2
20260507104253 8 271 0.0 0.0 0.00 0.08 0.08 94 1016.0
20260507103749 8 263 0.0 0.0 0.00 0.08 0.08 94 1016.0
20260507103245 8 255 0.0 0.0 0.00 0.08 0.08 94 1016.3
20260507102742 8 257 0.0 0.0 0.00 0.08 0.08 94 1016.1
20260507102239 8 260 0.0 1.6 0.00 0.08 0.08 94 1016.0
20260507101735 8 259 0.0 0.0 0.00 0.08 0.08 94 1016.1
20260507101230 8 248 0.0 0.0 0.00 0.08 0.08 94 1016.2
20260507100727 8 258 0.0 0.0 0.00 0.08 0.08 94 1016.0
20260507100226 8 255 0.0 0.0 0.00 0.08 0.08 94 1015.8
20260507095724 8 255 0.0 0.0 0.00 0.08 0.08 94 1016.0
20260507095220 8 253 0.0 0.0 0.00 0.08 0.08 94 1015.9
20260507094717 8 250 0.0 0.0 0.00 0.08 0.08 94 1016.0
20260507094214 8 247 0.0 0.0 0.00 0.08 0.08 94 1015.8
20260507093711 8 250 0.0 0.0 0.00 0.08 0.08 94 1016.0
20260507093209 8 253 0.0 0.0 0.00 0.08 0.08 94 1015.9
20260507092706 8 252 0.0 1.6 0.00 0.08 0.08 94 1015.8
20260507092202 8 267 0.0 0.0 0.00 0.08 0.08 94 1015.9
20260507091659 8 286 0.0 0.0 0.00 0.08 0.08 94 1015.8
20260507091155 8 286 0.0 0.0 0.00 0.08 0.08 94 1015.9
20260507090651 8 286 0.0 0.0 0.00 0.08 0.08 94 1015.6
20260507090148 8 286 0.0 0.0 0.00 0.08 0.08 94 1015.7
20260507085645 8 246 0.0 0.0 0.00 0.08 0.08 94 1015.8
20260507085142 8 246 0.0 0.0 0.00 0.08 0.08 94 1015.6
20260507084639 8 246 0.0 0.0 0.00 0.08 0.08 94 1015.8
20260507084135 8 246 0.0 0.0 0.00 0.08 0.08 94 1015.8
20260507083632 8 246 0.0 0.0 0.00 0.08 0.08 94 1015.9
20260507083129 8 288 0.0 0.0 0.00 0.08 0.08 94 1015.8
20260507082625 8 288 0.0 0.0 0.00 0.08 0.08 94 1015.7
20260507082121 8 288 0.0 0.0 0.00 0.08 0.08 93 1015.8
20260507081618 8 288 0.0 0.0 0.00 0.08 0.08 93 1016.0
20260507081115 8 288 0.0 0.0 0.00 0.08 0.08 93 1016.0
20260507080611 8 288 0.0 0.0 0.00 0.08 0.08 93 1015.9
20260507080108 8 288 0.0 0.0 0.00 0.08 0.08 93 1016.0
20260507075602 8 288 0.0 0.0 0.00 0.08 0.08 93 1016.1
20260507075059 8 262 0.0 0.0 0.00 0.08 0.08 93 1015.9
20260507074556 8 299 0.0 0.0 0.00 0.08 0.08 93 1015.9
20260507074054 8 264 0.0 0.0 0.00 0.08 0.08 93 1015.9
20260507073550 8 260 0.0 0.0 0.00 0.08 0.08 93 1016.0
20260507073047 8 265 0.0 0.0 0.00 0.08 0.08 93 1015.9
20260507072544 8 282 0.0 0.0 0.00 0.08 0.08 93 1016.0
20260507072041 8 229 4.8 4.8 0.00 0.08 0.08 93 1016.0
20260507071539 8 302 0.0 0.0 0.00 0.08 0.08 93 1015.9
20260507071035 8 307 0.0 1.6 0.00 0.08 0.08 93 1015.8
20260507070532 9 297 0.0 0.0 0.13 0.08 0.08 93 1015.9
20260507070030 9 273 0.0 0.0 0.13 0.08 0.08 93 1015.8
20260507065526 8 291 0.0 0.0 0.00 0.05 0.05 93 1016.0
20260507065023 9 267 0.0 0.0 0.00 0.05 0.05 93 1015.8
20260507064521 9 265 0.0 0.0 0.00 0.05 0.05 93 1016.0
20260507064019 9 313 3.2 3.2 0.00 0.05 0.05 93 1016.0
20260507063516 9 238 4.8 4.8 0.00 0.05 0.05 93 1015.8
20260507063013 9 283 1.6 3.2 0.00 0.05 0.05 93 1016.0
20260507062510 9 250 3.2 3.2 0.00 0.05 0.05 93 1015.6
20260507062008 9 252 0.0 0.0 0.00 0.05 0.05 93 1015.6
20260507061505 9 226 0.0 0.0 0.00 0.05 0.05 93 1015.7
20260507061003 9 226 0.0 0.0 0.00 0.05 0.05 93 1015.9
20260507060500 9 227 0.0 0.0 0.00 0.05 0.05 93 1016.0
20260507055956 9 227 0.0 0.0 0.00 0.05 0.05 93 1016.1
20260507055452 9 227 0.0 0.0 0.00 0.05 0.05 93 1016.1
20260507054949 9 227 0.0 0.0 0.00 0.05 0.05 93 1016.1
20260507054444 9 227 0.0 0.0 0.00 0.05 0.05 93 1016.1
20260507053942 9 220 0.0 1.6 0.00 0.05 0.05 94 1016.1
20260507053440 9 243 1.6 3.2 0.18 0.05 0.05 94 1016.2
20260507052938 9 262 0.0 0.0 0.18 0.05 0.05 94 1016.2
20260507052435 9 275 0.0 3.2 0.00 0.03 0.03 94 1016.3
20260507051932 10 306 0.0 0.0 0.00 0.03 0.03 94 1016.3
20260507051430 10 266 0.0 0.0 0.00 0.03 0.03 94 1016.5
20260507050926 10 278 0.0 0.0 0.00 0.03 0.03 94 1016.4
20260507050423 10 278 0.0 0.0 0.00 0.03 0.03 94 1016.4
20260507045920 10 278 0.0 0.0 0.18 0.03 0.03 94 1016.3
20260507045416 10 284 0.0 0.0 0.00 0.00 0.00 94 1016.5
20260507044914 10 329 0.0 0.0 0.00 0.00 0.00 94 1016.3
20260507044410 10 329 0.0 0.0 0.00 0.00 0.00 94 1016.1
20260507043906 10 242 0.0 0.0 0.00 0.00 0.00 94 1016.4
20260507043403 10 114 0.0 0.0 0.00 0.00 0.00 94 1016.3
20260507042859 10 114 0.0 0.0 0.00 0.00 0.00 94 1016.3
20260507042355 10 114 0.0 0.0 0.00 0.00 0.00 94 1016.2
20260507041852 10 114 0.0 0.0 0.00 0.00 0.00 94 1016.1
20260507041348 10 114 0.0 0.0 0.00 0.00 0.00 94 1016.1
20260507040846 10 114 0.0 1.6 0.00 0.00 0.00 94 1016.1
20260507040342 10 107 0.0 0.0 0.00 1.17 1.17 94 1016.3
20260507035838 10 113 0.0 0.0 0.00 1.17 1.17 93 1016.0
20260507035333 10 113 0.0 0.0 0.00 1.17 1.17 93 1016.0
20260507034831 10 113 0.0 0.0 0.00 1.17 1.17 93 1016.1
20260507034328 10 113 0.0 0.0 0.00 1.17 1.17 93 1015.9